DW6016 Weather Reports


time (UTC)temp
C
wind
direction
speed
KPH
gust
KPH
rain 1hr
cm
rain 24hr
cm
rain mn
cm
humidity
%
barometer
mb
20260905034516 12 332 0.0 0.0 0.00 0.53 0.53 99 1016.0
20260905034015 12 332 0.0 0.0 0.00 0.53 0.53 99 1016.1
20260905033509 12 332 0.0 0.0 0.00 0.53 0.53 99 1016.1
20260905033005 13 332 0.0 0.0 0.00 0.53 0.53 99 1016.1
20260905032500 13 332 0.0 0.0 0.00 0.53 0.53 99 1016.3
20260905031954 13 332 0.0 0.0 0.00 0.53 0.53 99 1016.0
20260905031450 13 332 0.0 0.0 0.00 0.53 0.53 99 1016.0
20260905030945 13 332 0.0 0.0 0.00 0.53 0.53 99 1016.0
20260905030441 13 332 0.0 0.0 0.00 0.53 0.53 99 1015.8
20260905025939 13 332 0.0 0.0 0.00 0.53 0.53 99 1015.8
20260905025435 13 332 0.0 0.0 0.00 0.53 0.53 99 1016.0
20260905024932 13 332 0.0 0.0 0.00 0.53 0.53 99 1015.9
20260905024432 13 332 0.0 0.0 0.00 0.53 0.53 98 1015.7
20260905023927 13 332 0.0 0.0 0.00 0.53 0.53 98 1015.8
20260905023422 14 332 0.0 0.0 0.00 0.53 0.53 97 1015.8
20260905022921 14 332 0.0 0.0 0.00 0.53 0.53 96 1015.8
20260905022417 14 332 0.0 0.0 0.00 0.53 0.53 96 1015.9
20260905021912 15 332 0.0 0.0 0.00 0.53 0.53 96 1015.9
20260905021412 15 332 0.0 0.0 0.00 0.53 0.53 95 1015.7
20260905020907 15 332 0.0 0.0 0.00 0.53 0.53 95 1015.8
20260905020407 15 332 0.0 0.0 0.00 0.53 0.53 94 1015.9
20260905015906 15 332 0.0 0.0 0.00 0.53 0.53 94 1015.7
20260905015405 15 332 0.0 0.0 0.00 0.53 0.53 94 1015.7
20260905014904 15 285 0.0 0.0 0.00 0.53 0.53 94 1015.5
20260905014400 15 299 0.0 0.0 0.00 0.53 0.53 94 1015.4
20260905013855 15 299 0.0 0.0 0.00 0.53 0.53 95 1015.4
20260905013351 15 299 0.0 0.0 0.00 0.53 0.53 95 1015.5
20260905012846 15 299 0.0 0.0 0.00 0.53 0.53 95 1015.3
20260905012341 15 299 0.0 0.0 0.00 0.53 0.53 96 1015.4
20260905011838 15 299 0.0 0.0 0.00 0.53 0.53 96 1015.3
20260905011334 15 299 0.0 0.0 0.00 0.53 0.53 95 1015.2
20260905010829 15 299 0.0 0.0 0.00 0.53 0.53 95 1015.4
20260905010324 15 299 0.0 0.0 0.00 0.53 0.53 96 1015.2
20260905005820 15 299 0.0 0.0 0.00 0.53 0.53 96 1015.1
20260905005316 15 299 0.0 0.0 0.00 0.53 0.53 95 1015.2
20260905004810 15 298 0.0 0.0 0.00 0.53 0.53 95 1015.2
20260905004305 15 298 0.0 0.0 0.00 0.53 0.53 95 1015.1
20260905003800 15 298 0.0 0.0 0.00 0.53 0.53 95 1015.2
20260905003256 16 300 0.0 0.0 0.00 0.53 0.53 94 1015.1
20260905002752 16 299 0.0 0.0 0.00 0.53 0.53 94 1015.1
20260905002251 16 316 0.0 0.0 0.00 0.53 0.53 95 1015.2
20260905001746 16 316 0.0 0.0 0.00 0.53 0.53 95 1015.3
20260905001245 16 316 0.0 0.0 0.00 0.53 0.53 94 1014.9
20260905000741 16 316 0.0 0.0 0.00 0.53 0.53 94 1015.2
20260905000237 16 316 0.0 0.0 0.00 0.53 0.53 93 1015.0
20260904235732 16 316 0.0 0.0 0.00 0.53 0.53 93 1015.3
20260904235226 16 316 0.0 0.0 0.00 0.53 0.53 92 1015.2
20260904234721 16 316 0.0 0.0 0.00 0.53 0.53 92 1015.2
20260904234216 16 316 0.0 0.0 0.00 0.53 0.53 94 1015.2
20260904233712 16 303 0.0 0.0 0.00 0.53 0.53 93 1015.1
20260904233208 16 303 0.0 0.0 0.00 0.53 0.53 93 1015.5
20260904232705 16 323 0.0 0.0 0.00 0.53 0.53 94 1015.1
20260904232201 16 347 0.0 1.6 0.00 0.53 0.53 94 1015.1
20260904231656 16 332 0.0 0.0 0.00 0.53 0.53 95 1015.0
20260904231151 15 315 0.0 0.0 0.00 0.53 0.53 97 1014.9
20260904230651 15 315 0.0 0.0 0.00 0.53 0.53 98 1014.9
20260904230146 15 332 0.0 0.0 0.00 0.53 0.53 99 1014.7
20260904225644 15 302 0.0 0.0 0.00 0.53 0.53 99 1014.9
20260904225139 14 331 0.0 1.6 0.00 0.53 0.53 99 1014.9
20260904224633 14 332 0.0 0.0 0.00 0.53 0.53 99 1014.9
20260904224127 14 342 0.0 1.6 0.13 0.53 0.53 99 1014.9
20260904223627 14 328 0.0 0.0 0.13 0.53 0.53 99 1014.9
20260904223122 14 319 0.0 0.0 0.00 0.51 0.51 99 1015.2
20260904222619 14 319 0.0 0.0 0.00 0.51 0.51 98 1015.2
20260904222114 13 322 0.0 0.0 0.18 0.51 0.51 98 1015.1
20260904221613 13 322 0.0 0.0 0.18 0.51 0.51 98 1015.1
20260904221113 13 323 0.0 0.0 0.18 0.51 0.51 97 1015.0
20260904220608 13 307 0.0 1.6 0.00 0.48 0.48 97 1015.0
20260904220104 13 2 1.6 1.6 0.13 0.48 0.48 97 1014.8
20260904215604 14 314 0.0 0.0 0.30 0.48 0.48 97 1014.9
20260904215100 14 347 1.6 1.6 0.43 0.48 0.48 97 1014.7
20260904214554 14 319 0.0 0.0 0.43 0.43 0.43 96 1014.9
20260904214050 14 319 0.0 0.0 0.79 0.41 0.41 95 1014.7
20260904213548 15 342 1.6 1.6 0.61 0.38 0.38 94 1014.5
20260904213045 15 352 0.0 1.6 0.48 0.28 0.28 93 1014.8
20260904212544 16 339 0.0 1.6 0.61 0.28 0.28 90 1014.3
20260904212040 16 303 0.0 1.6 0.13 0.20 0.20 85 1014.5
20260904211539 17 312 0.0 0.0 0.00 0.18 0.18 83 1014.3
20260904211035 17 308 0.0 0.0 0.00 0.18 0.18 78 1014.3
20260904210534 17 302 1.6 3.2 0.00 0.18 0.18 74 1014.0
20260904210030 18 310 1.6 3.2 0.00 0.18 0.18 75 1013.9
20260904205526 18 305 0.0 1.6 0.00 0.18 0.18 72 1013.8
20260904205022 18 313 0.0 0.0 0.00 0.18 0.18 71 1014.0
20260904204518 18 309 0.0 0.0 0.00 0.18 0.18 73 1014.0
20260904204014 18 304 3.2 3.2 0.00 0.18 0.18 71 1013.7
20260904203509 18 298 1.6 4.8 0.00 0.18 0.18 71 1013.8
20260904203006 18 311 1.6 1.6 0.00 0.18 0.18 71 1013.7
20260904202501 18 297 1.6 1.6 0.00 0.18 0.18 70 1013.7
20260904201957 18 226 0.0 1.6 0.00 0.18 0.18 69 1013.7
20260904201452 18 334 1.6 3.2 0.00 0.18 0.18 70 1013.9
20260904200948 19 282 0.0 1.6 0.00 0.18 0.18 70 1013.9
20260904200446 18 348 1.6 3.2 0.00 0.18 0.18 71 1013.9
20260904195941 18 305 0.0 0.0 0.00 0.18 0.18 75 1013.9
20260904195439 18 296 3.2 4.8 0.00 0.18 0.18 71 1013.8
20260904194938 20 98 1.6 3.2 0.00 0.18 0.18 68 1013.9
20260904194433 18 311 1.6 1.6 0.00 0.18 0.18 70 1013.7
20260904193928 18 337 0.0 1.6 0.00 0.18 0.18 66 1014.0
20260904193424 18 107 3.2 3.2 0.00 0.18 0.18 65 1014.1
20260904192919 18 31 1.6 3.2 0.00 0.18 0.18 66 1014.0
20260904192414 18 305 0.0 1.6 0.00 0.18 0.18 64 1014.0
20260904191910 18 290 1.6 1.6 0.00 0.18 0.18 65 1014.2
20260904191407 18 304 0.0 0.0 0.00 0.18 0.18 65 1014.2
20260904190903 18 288 1.6 1.6 0.00 0.18 0.18 66 1014.2
20260904190358 18 248 1.6 1.6 0.00 0.18 0.18 67 1014.4
20260904185855 18 234 1.6 3.2 0.00 0.18 0.18 64 1014.0
20260904185350 18 262 1.6 1.6 0.00 0.18 0.18 67 1014.4
20260904184849 18 289 1.6 1.6 0.00 0.18 0.18 66 1014.1
20260904184344 17 327 0.0 0.0 0.00 0.18 0.18 69 1014.0
20260904183840 18 73 3.2 3.2 0.00 0.18 0.18 67 1014.0
20260904183335 17 347 0.0 1.6 0.00 0.18 0.18 69 1014.0
20260904182830 17 38 1.6 3.2 0.00 0.18 0.18 70 1014.0
20260904182325 18 304 0.0 0.0 0.00 0.18 0.18 73 1014.0
20260904181821 18 303 0.0 0.0 0.00 0.18 0.18 72 1014.1
20260904181320 17 302 0.0 0.0 0.00 0.18 0.18 75 1013.9
20260904180816 17 311 0.0 0.0 0.00 0.18 0.18 74 1013.9
20260904180311 18 319 0.0 0.0 0.00 0.18 0.18 74 1013.9
20260904175810 17 227 1.6 1.6 0.00 0.18 0.18 73 1013.9
20260904175308 17 312 0.0 1.6 0.00 0.18 0.18 75 1013.8
20260904174803 17 316 0.0 1.6 0.00 0.18 0.18 80 1013.9
20260904174259 17 152 1.6 1.6 0.00 0.18 0.18 74 1013.8
20260904173755 17 308 0.0 1.6 0.00 0.18 0.18 75 1013.8
20260904173250 17 336 0.0 1.6 0.00 0.18 0.18 75 1013.8
20260904172746 16 324 1.6 1.6 0.00 0.18 0.18 79 1013.6
20260904172245 16 320 1.6 1.6 0.00 0.18 0.18 83 1013.9
20260904171740 16 349 1.6 1.6 0.00 0.18 0.18 82 1013.8
20260904171235 16 315 0.0 0.0 0.00 0.18 0.18 85 1013.8
20260904170732 15 312 0.0 0.0 0.00 0.18 0.18 88 1013.7
20260904170228 15 351 1.6 1.6 0.00 0.18 0.18 89 1013.7
20260904165727 15 316 0.0 0.0 0.00 0.18 0.18 91 1013.7
20260904165221 15 294 1.6 1.6 0.00 0.18 0.18 92 1013.8
20260904164715 15 317 0.0 0.0 0.00 0.18 0.18 92 1013.6
20260904164210 14 299 1.6 1.6 0.00 0.18 0.18 94 1013.7
20260904163706 14 312 0.0 0.0 0.00 0.18 0.18 97 1013.7
20260904163202 14 307 0.0 0.0 0.00 0.18 0.18 99 1013.6
20260904162700 13 306 0.0 0.0 0.00 0.18 0.18 99 1013.5
20260904162155 13 307 0.0 0.0 0.00 0.18 0.18 99 1013.6
20260904161651 13 308 0.0 0.0 0.00 0.18 0.18 99 1013.4
20260904161146 13 308 0.0 0.0 0.00 0.18 0.18 99 1013.5
20260904160642 13 310 0.0 1.6 0.00 0.18 0.18 99 1013.5
20260904160137 13 308 0.0 0.0 0.18 0.18 0.18 99 1013.4
20260904155632 13 309 0.0 0.0 0.18 0.18 0.18 99 1013.7
20260904155126 12 309 0.0 0.0 0.00 0.15 0.15 99 1013.7
20260904154625 12 312 0.0 0.0 0.00 0.15 0.15 99 1013.7
20260904154125 12 310 1.6 1.6 0.00 0.15 0.15 99 1013.6
20260904153620 12 312 0.0 0.0 0.00 0.15 0.15 99 1013.6
20260904153116 12 312 0.0 0.0 0.00 0.15 0.15 99 1013.6
20260904152612 12 306 0.0 0.0 0.00 0.15 0.15 99 1013.6
20260904152107 12 306 0.0 0.0 0.00 0.15 0.15 99 1013.5
20260904151602 12 306 0.0 0.0 0.00 0.15 0.15 99 1013.4
20260904151101 12 306 0.0 0.0 0.00 0.15 0.15 99 1013.5
20260904150556 12 306 0.0 0.0 0.00 0.15 0.15 99 1013.4
20260904150056 12 306 0.0 0.0 0.00 0.15 0.15 99 1013.2
20260904145555 12 306 0.0 0.0 0.00 0.15 0.15 99 1013.3
20260904145050 12 306 0.0 0.0 0.00 0.15 0.15 99 1013.2
20260904144546 11 306 0.0 0.0 0.00 0.15 0.15 99 1013.0
20260904144042 11 306 0.0 0.0 0.00 0.15 0.15 99 1013.1
20260904143538 11 306 0.0 0.0 0.00 0.15 0.15 99 1013.0
20260904143034 11 306 0.0 0.0 0.00 0.15 0.15 99 1012.9
20260904142531 11 311 0.0 0.0 0.00 0.15 0.15 99 1013.0
20260904142026 11 311 0.0 0.0 0.00 0.15 0.15 99 1013.0
20260904141521 11 311 0.0 0.0 0.00 0.15 0.15 99 1012.7
20260904141017 11 311 0.0 0.0 0.00 0.15 0.15 99 1012.6
20260904140516 11 312 0.0 0.0 0.00 0.15 0.15 99 1012.6
20260904140017 11 313 0.0 0.0 0.00 0.15 0.15 99 1012.5
20260904135515 11 308 0.0 0.0 0.00 0.15 0.15 99 1012.7
20260904135012 11 307 0.0 0.0 0.00 0.15 0.15 99 1012.6
20260904134507 11 314 0.0 0.0 0.13 0.15 0.15 99 1012.5
20260904134001 11 313 0.0 0.0 0.13 0.15 0.15 99 1012.5
20260904133455 11 305 0.0 0.0 0.00 0.13 0.13 99 1012.6
20260904132951 11 305 0.0 0.0 0.00 0.13 0.13 99 1012.5
20260904132452 11 305 0.0 0.0 0.00 0.13 0.13 99 1012.6
20260904131946 11 305 0.0 0.0 0.00 0.13 0.13 99 1012.4
20260904131441 11 305 0.0 0.0 0.00 0.13 0.13 99 1012.3
20260904130937 11 305 0.0 0.0 0.00 0.13 0.13 99 1012.4
20260904130436 11 305 0.0 0.0 0.00 0.13 0.13 99 1012.3
20260904125930 11 305 0.0 0.0 0.00 0.13 0.13 99 1012.4
20260904125427 11 305 0.0 0.0 0.00 0.13 0.13 99 1012.3
20260904124926 11 305 0.0 0.0 0.00 0.13 0.13 99 1012.2
20260904124423 11 305 0.0 0.0 0.00 0.13 0.13 99 1012.1
20260904123919 11 305 0.0 0.0 0.00 0.13 0.13 99 1012.3
20260904123418 11 305 0.0 0.0 0.00 0.13 0.13 99 1012.1
20260904122914 11 305 0.0 0.0 0.00 0.13 0.13 99 1012.1
20260904122413 11 305 0.0 0.0 0.00 0.13 0.13 99 1012.1
20260904121908 11 305 0.0 0.0 0.00 0.13 0.13 99 1011.8
20260904121405 11 305 0.0 0.0 0.00 0.13 0.13 99 1011.9
20260904120901 11 305 0.0 0.0 0.00 0.13 0.13 99 1011.8
20260904120356 11 305 0.0 0.0 0.00 0.13 0.13 99 1011.7
20260904115852 11 305 0.0 0.0 0.00 0.13 0.13 99 1011.8
20260904115346 11 305 0.0 0.0 0.18 0.13 0.13 99 1011.7
20260904114841 11 305 0.0 0.0 0.18 0.13 0.13 99 1011.9
20260904114336 11 305 0.0 0.0 0.13 0.10 0.10 99 1011.9
20260904113831 11 305 0.0 0.0 0.13 0.10 0.10 99 1011.9
20260904113330 11 305 0.0 0.0 0.00 0.08 0.08 99 1011.7
20260904112825 11 305 0.0 0.0 0.00 0.08 0.08 99 1011.8
20260904112321 11 305 0.0 0.0 0.18 0.08 0.08 99 1011.6
20260904111816 11 305 0.0 0.0 0.18 0.08 0.08 99 1011.8
20260904111312 12 305 0.0 0.0 0.13 0.05 0.05 99 1011.5
20260904110808 11 305 0.0 0.0 0.13 0.05 0.05 99 1011.4
20260904110306 11 305 0.0 0.0 0.13 0.05 0.05 99 1011.5
20260904105801 11 305 0.0 0.0 0.18 0.03 0.03 99 1011.8
20260904105256 11 305 0.0 0.0 0.18 0.03 0.03 99 1011.5
20260904104751 11 305 0.0 0.0 0.00 0.00 0.00 99 1011.7
20260904104247 11 305 0.0 0.0 0.00 0.00 0.00 99 1011.5
20260904103744 11 305 0.0 0.0 0.00 0.00 0.00 99 1011.6
20260904103238 11 305 0.0 0.0 0.00 0.00 0.00 99 1011.4
20260904102733 11 305 0.0 0.0 0.00 0.00 0.00 99 1011.5
20260904102229 11 305 0.0 0.0 0.00 0.00 0.00 99 1011.3
20260904101725 11 305 0.0 0.0 0.00 0.00 0.00 99 1011.5
20260904101221 11 305 0.0 0.0 0.00 0.00 0.00 99 1011.4
20260904100717 11 305 0.0 0.0 0.00 0.00 0.00 99 1011.4
20260904100213 11 305 0.0 0.0 0.00 0.00 0.00 99 1011.4
20260904095712 11 305 0.0 0.0 0.00 0.00 0.00 99 1011.4
20260904095206 11 305 0.0 0.0 0.00 0.00 0.00 99 1011.4
20260904094702 11 305 0.0 0.0 0.00 0.00 0.00 99 1011.0
20260904094156 11 305 0.0 0.0 0.00 0.00 0.00 99 1011.1
20260904093654 11 305 0.0 0.0 0.00 0.00 0.00 99 1011.1
20260904093153 11 305 0.0 0.0 0.00 0.00 0.00 99 1011.2
20260904092649 11 305 0.0 0.0 0.00 0.00 0.00 99 1011.2
20260904092145 11 305 0.0 0.0 0.00 0.00 0.00 99 1011.3
20260904091641 11 305 0.0 0.0 0.00 0.00 0.00 99 1011.1
20260904091140 11 305 0.0 0.0 0.00 0.00 0.00 99 1011.1
20260904090636 12 305 0.0 0.0 0.00 0.00 0.00 99 1011.4
20260904090132 12 305 0.0 0.0 0.00 0.00 0.00 99 1011.2
20260904085631 12 305 0.0 0.0 0.00 0.00 0.00 99 1010.9
20260904085126 12 305 0.0 0.0 0.00 0.00 0.00 99 1011.0
20260904084621 12 305 0.0 0.0 0.00 0.00 0.00 99 1011.1
20260904084118 12 305 0.0 0.0 0.00 0.00 0.00 99 1011.0
20260904083614 12 305 0.0 0.0 0.00 0.00 0.00 99 1011.1
20260904083109 12 305 0.0 0.0 0.00 0.00 0.00 99 1011.0
20260904082604 12 305 0.0 0.0 0.00 0.00 0.00 99 1011.0
20260904082100 12 305 0.0 0.0 0.00 0.00 0.00 99 1011.2
20260904081555 12 305 0.0 0.0 0.00 0.00 0.00 99 1011.3
20260904081050 12 305 0.0 0.0 0.00 0.00 0.00 99 1011.1
20260904080546 12 305 0.0 0.0 0.00 0.00 0.00 99 1011.1
20260904080042 12 305 0.0 0.0 0.00 0.00 0.00 99 1011.3
20260904075537 12 305 0.0 0.0 0.00 0.00 0.00 99 1011.1
20260904075032 12 305 0.0 0.0 0.00 0.00 0.00 99 1011.3
20260904074531 12 305 0.0 0.0 0.00 0.00 0.00 99 1011.3
20260904074026 12 305 0.0 0.0 0.00 0.00 0.00 99 1011.2
20260904073521 12 305 0.0 0.0 0.00 0.00 0.00 99 1011.2
20260904073018 12 305 0.0 0.0 0.00 0.00 0.00 99 1011.1
20260904072513 12 305 0.0 0.0 0.00 0.00 0.00 99 1010.9
20260904072008 12 305 0.0 0.0 0.00 0.00 0.00 99 1011.1
20260904071503 12 305 0.0 0.0 0.00 0.00 0.00 99 1011.0
20260904070958 12 305 0.0 1.6 0.00 0.00 0.00 99 1011.1
20260904070456 12 305 0.0 0.0 0.00 0.00 0.00 99 1011.2
20260904065951 12 305 0.0 0.0 0.00 0.58 0.58 99 1011.1
20260904065447 12 305 0.0 0.0 0.00 0.58 0.58 99 1011.0
20260904064942 12 305 0.0 0.0 0.00 0.58 0.58 99 1011.3
20260904064439 12 305 0.0 0.0 0.00 0.58 0.58 99 1011.0
20260904063933 12 305 0.0 0.0 0.00 0.58 0.58 99 1011.0
20260904063430 12 305 0.0 0.0 0.00 0.58 0.58 99 1011.0
20260904062925 12 305 0.0 0.0 0.00 0.58 0.58 99 1010.9
20260904062421 12 305 0.0 0.0 0.00 0.58 0.58 99 1011.0
20260904061916 12 305 0.0 0.0 0.00 0.58 0.58 99 1011.0
20260904061413 12 305 0.0 0.0 0.00 0.58 0.58 99 1010.9
20260904060909 12 305 0.0 0.0 0.00 0.58 0.58 99 1010.9
20260904060404 12 305 0.0 0.0 0.00 0.58 0.58 99 1011.1
20260904055900 12 305 0.0 0.0 0.00 0.58 0.58 99 1011.1
20260904055355 12 305 0.0 0.0 0.00 0.58 0.58 99 1011.0
20260904054850 12 305 0.0 0.0 0.00 0.58 0.58 99 1010.9
20260904054346 12 305 0.0 0.0 0.00 0.58 0.58 99 1011.1
20260904053842 12 305 0.0 0.0 0.00 0.58 0.58 99 1011.4
20260904053341 12 305 0.0 0.0 0.00 0.58 0.58 99 1011.0
20260904052837 12 305 0.0 0.0 0.00 0.58 0.58 99 1011.1
20260904052333 12 305 0.0 0.0 0.00 0.58 0.58 99 1011.2
20260904051829 12 305 0.0 0.0 0.00 0.58 0.58 99 1011.2
20260904051325 12 305 0.0 0.0 0.00 0.58 0.58 99 1011.2
20260904050819 12 305 0.0 0.0 0.00 0.58 0.58 99 1011.0
20260904050317 12 305 0.0 0.0 0.00 0.58 0.58 99 1011.3
20260904045816 12 305 0.0 0.0 0.00 0.58 0.58 99 1011.3
20260904045311 12 305 0.0 0.0 0.00 0.58 0.58 98 1011.2
20260904044806 12 305 0.0 0.0 0.00 0.58 0.58 98 1011.3
20260904044303 12 305 0.0 0.0 0.00 0.58 0.58 98 1011.4
20260904043758 12 305 0.0 0.0 0.00 0.58 0.58 98 1011.4
20260904043254 12 305 0.0 0.0 0.00 0.58 0.58 98 1011.3
20260904042749 12 304 0.0 0.0 0.00 0.58 0.58 98 1011.4
20260904042246 12 304 0.0 0.0 0.00 0.58 0.58 98 1011.3
20260904041745 12 304 0.0 0.0 0.00 0.58 0.58 97 1011.2
20260904041242 12 304 0.0 0.0 0.00 0.58 0.58 97 1011.5
20260904040737 12 304 0.0 0.0 0.00 0.58 0.58 97 1011.2
20260904040232 12 304 0.0 0.0 0.00 0.58 0.58 97 1011.2
20260904035729 12 304 0.0 0.0 0.00 0.58 0.58 97 1011.3
20260904035224 12 321 0.0 0.0 0.00 0.58 0.58 97 1011.4